Regional Weather Roundup
Issued by NWS

Home | Current Version | Previous Version | Text Only | Print | Product List | Glossary On
Versions: 1 2 3 4 5 6 7 8 9 10 11 12 13 14 15 16 17 18 19 20 21 22 23 24 25 26 27
000
ASUS46 KPQR 230910
RWROR

OREGON REGIONAL WEATHER ROUNDUP
NATIONAL WEATHER SERVICE PORTLAND OR
100 AM PST FRI FEB 23 2018

NOTE: "FAIR" INDICATES FEW OR NO CLOUDS BELOW 12,000 FEET WITH
NO SIGNIFICANT WEATHER AND/OR OBSTRUCTIONS TO VISIBILITY.

ORZ001>013-231000-
NORTHWEST OREGON


CITY           SKY/WX    TMP DP  RH WIND       PRES   REMARKS
ASTORIA        CLEAR     26  23  88 SE3       30.47S
TILLAMOOK      CLEAR     25  25 100 CALM      30.50R
NEWPORT        CLEAR     28  28 100 CALM      30.50R
PORTLAND       CLEAR     28  22  78 SE8       30.48S
VANCOUVER WA   CLEAR     30  23  75 CALM      30.48R
SCAPPOOSE      CLEAR     24  22  91 CALM      30.48R
HILLSBORO      CLEAR     24  21  88 CALM      30.46S
AURORA         CLEAR     27  22  81 CALM      30.47S
MCMINNVILLE    CLEAR     29  23  78 N3        30.46S
SALEM          CLEAR     26  21  81 CALM      30.45S
CORVALLIS      CLEAR     28  24  85 NW3       30.46S
EUGENE         CLEAR     26  24  92 N5        30.45R
$$

ORZ021-028-231000-
SOUTHWEST OREGON


CITY           SKY/WX    TMP DP  RH WIND       PRES   REMARKS
NORTH BEND     CLEAR     29  27  92 SE7       30.49R
BROOKINGS      CLEAR     34  22  61 N3        30.42R
ROSEBURG       CLEAR     31  28  89 CALM      30.43R
SEXTON SUMMIT  FOG       21  19  92 CALM      30.22R VSB 3/4
GRANTS PASS    MOCLDY    30  28  93 CALM      30.40R
MEDFORD        CLOUDY    32  28  85 NW5       30.35R
$$

ORZ014>016-041-231000-
COLUMBIA GORGE


CITY           SKY/WX    TMP DP  RH WIND       PRES   REMARKS
TROUTDALE      CLEAR     29  22  75 E7        30.48R
HOOD RIVER     CLEAR     21  18  86 SW5       30.47F
THE DALLES     CLEAR     18  12  77 SE6       30.49S
$$

ORZ029>031-041-044-049-050-061>064-502-503-505>511-231000-
EASTERN OREGON


CITY           SKY/WX    TMP DP  RH WIND       PRES   REMARKS
MADRAS         NOT AVBL
REDMOND        PTCLDY     4   0  83 SW3       30.30R
BEND           MOCLDY     9   5  85 CALM      30.29R
PRINEVILLE     PTCLDY     7   5  92 CALM      30.29R
KLAMATH FALLS  MOCLDY    21  12  68 N10       30.17R WCI  10
LAKEVIEW       FLURRIES  13   9  84 N12       30.11R WCI  -1
HERMISTON      CLEAR     14  12  92 CALM      30.43R
PENDLETON      CLEAR     15  10  80 S7        30.37R
JOHN DAY       CLEAR     11   6  78 CALM      30.22R
MEACHAM        FLURRIES  12   8  84 CALM      30.21S
LA GRANDE      MOCLDY    15   9  76 NW8       30.28R
BAKER CITY     CLEAR     13   3  64 W5        30.21R
BURNS          CLEAR     11   5  77 NW13      30.13R WCI  -4
ROME             N/A     18  14  84 N7        30.08R
ONTARIO        CLEAR     22   9  57 NW23      30.22S WCI   6
$$




USA.gov is the U.S. government's official web portal to all federal, state and local government web resources and services.